Вернуться в каталог

CZ-3B DEB

АктивенGTO
NORAD 40845·DEBRIS·🇨🇳 China

Запущен Dec 19, 2011 с Xichang Satellite Launch Center

Loading…

TLE

УстаревшееSource: Space-Track

Эпоха: Aug 23, 2026, 16:24 UTC

1 40845U 11077AA  26235.68343645 -.00000208  00000-0  17056-2 0  9996
2 40845  21.8289 114.1668 7376069 231.1078  36.8564  2.07716817 93722

Отслеживайте CZ-3B DEB в реальном времени с AllMySat

Download on the App Store